When you browse on this site, cookies collect data to enhance your experience and personalize the content and advertising you see.
Visit our Privacy Policy to learn more. By continuing to use the site, you agree to this use of cookies and data.
  • In Hungary
  • List of Countries
  • For 7 days
  • Water Temperature
  • Satellite Maps
  • Weather Map
  • News
  • Weather Widgets
  • user-avatar
    Login

    Hourly Weather Dublyany

    Today, 24 July, Wednesday

    Time Temperature Precipitation Wind Pressure Humidity
    00:00 +14°C° 0 mm 3 mps 741 mmHg 96%
    01:00 +14°C° 0 mm 2 mps 740 mmHg 96%
    02:00 +14°C° 0 mm 2 mps 740 mmHg 96%
    03:00 +14°C° 0 mm 2 mps 740 mmHg 96%
    04:00 +13°C° 0 mm 2 mps 740 mmHg 96%
    05:00 +13°C° 0 mm 2 mps 740 mmHg 96%
    06:00 +15°C° 0 mm 2 mps 740 mmHg 93%
    07:00 +16°C° 0 mm 2 mps 740 mmHg 90%
    08:00 +18°C° 0 mm 2 mps 740 mmHg 87%
    09:00 +19°C° 0.1 mm 3 mps 740 mmHg 83%
    10:00 +20°C° 0.1 mm 3 mps 740 mmHg 79%
    11:00 +21°C° 0.1 mm 3 mps 741 mmHg 74%
    12:00 +22°C° 0.1 mm 3 mps 740 mmHg 71%
    13:00 +24°C° 0.1 mm 3 mps 740 mmHg 67%
    14:00 +25°C° 0.1 mm 3 mps 740 mmHg 63%
    15:00 +24°C° 0 mm 3 mps 740 mmHg 64%
    16:00 +24°C° 0 mm 3 mps 740 mmHg 66%
    17:00 +24°C° 0 mm 3 mps 740 mmHg 67%
    18:00 +22°C° 0 mm 3 mps 740 mmHg 73%
    19:00 +20°C° 0 mm 2 mps 740 mmHg 80%
    20:00 +19°C° 0 mm 2 mps 740 mmHg 86%
    21:00 +18°C° 0 mm 2 mps 740 mmHg 88%
    22:00 +17°C° 0 mm 2 mps 740 mmHg 90%
    23:00 +16°C° 0 mm 2 mps 741 mmHg 92%

    Tomorrow, 25 July, Thursday

    Time Temperature Precipitation Wind Pressure Humidity
    00:00 +16°C° 0 mm 2 mps 740 mmHg 92%
    01:00 +16°C° 0 mm 2 mps 740 mmHg 93%
    02:00 +15°C° 0 mm 2 mps 740 mmHg 93%
    03:00 +15°C° 0 mm 2 mps 740 mmHg 93%
    04:00 +15°C° 0 mm 2 mps 741 mmHg 94%
    05:00 +15°C° 0 mm 2 mps 741 mmHg 94%
    06:00 +16°C° 0 mm 2 mps 741 mmHg 90%
    07:00 +18°C° 0 mm 2 mps 741 mmHg 86%
    08:00 +20°C° 0 mm 2 mps 741 mmHg 82%
    09:00 +21°C° 0 mm 2 mps 741 mmHg 77%
    10:00 +23°C° 0 mm 2 mps 741 mmHg 72%
    11:00 +25°C° 0 mm 2 mps 741 mmHg 67%
    12:00 +25°C° 0.3 mm 2 mps 741 mmHg 67%
    13:00 +25°C° 0.3 mm 3 mps 740 mmHg 67%
    14:00 +26°C° 0.3 mm 3 mps 740 mmHg 66%
    15:00 +26°C° 0.4 mm 3 mps 740 mmHg 67%
    16:00 +26°C° 0.4 mm 2 mps 739 mmHg 67%
    17:00 +25°C° 0.4 mm 2 mps 739 mmHg 67%
    18:00 +24°C° 0.1 mm 2 mps 739 mmHg 72%
    19:00 +23°C° 0.1 mm 1 mps 739 mmHg 77%
    20:00 +21°C° 0.1 mm 1 mps 739 mmHg 82%
    21:00 +20°C° 0.1 mm 1 mps 739 mmHg 84%
    22:00 +20°C° 0.1 mm 1 mps 739 mmHg 86%
    23:00 +19°C° 0.1 mm 1 mps 739 mmHg 88%

    Day after tomorrow, 26 July, Friday

    Time Temperature Precipitation Wind Pressure Humidity
    00:00 +18°C° 0 mm 1 mps 738 mmHg 89%
    01:00 +18°C° 0 mm 1 mps 738 mmHg 91%
    02:00 +18°C° 0 mm 1 mps 738 mmHg 92%
    03:00 +16°C° 0 mm 1 mps 738 mmHg 92%
    04:00 +16°C° 0 mm 1 mps 737 mmHg 93%
    05:00 +15°C° 0 mm 1 mps 737 mmHg 94%
    06:00 +17°C° 0 mm 2 mps 737 mmHg 90%
    07:00 +18°C° 0 mm 2 mps 737 mmHg 87%
    08:00 +19°C° 0 mm 2 mps 737 mmHg 84%
    09:00 +20°C° 0.5 mm 2 mps 737 mmHg 80%
    10:00 +21°C° 0.5 mm 3 mps 737 mmHg 76%
    11:00 +22°C° 0.5 mm 3 mps 737 mmHg 72%
    12:00 +22°C° 0.4 mm 3 mps 737 mmHg 70%
    13:00 +24°C° 0.4 mm 3 mps 736 mmHg 68%
    14:00 +24°C° 0.4 mm 3 mps 736 mmHg 67%
    15:00 +24°C° 0 mm 3 mps 736 mmHg 67%
    16:00 +24°C° 0 mm 3 mps 736 mmHg 68%
    17:00 +24°C° 0 mm 3 mps 735 mmHg 69%
    18:00 +21°C° 0.1 mm 3 mps 735 mmHg 74%
    19:00 +20°C° 0.1 mm 2 mps 735 mmHg 79%
    20:00 +19°C° 0.1 mm 1 mps 735 mmHg 84%
    21:00 +18°C° 0 mm 1 mps 735 mmHg 86%
    22:00 +18°C° 0 mm 1 mps 735 mmHg 89%
    23:00 +16°C° 0 mm 1 mps 735 mmHg 91%

    27 July, Saturday

    Time Temperature Precipitation Wind Pressure Humidity
    00:00 +15°C° 0 mm 1 mps 735 mmHg 93%
    01:00 +15°C° 0 mm 1 mps 735 mmHg 94%
    02:00 +15°C° 0 mm 1 mps 735 mmHg 96%
    03:00 +14°C° 0 mm 1 mps 734 mmHg 96%
    04:00 +14°C° 0 mm 2 mps 734 mmHg 97%
    05:00 +14°C° 0 mm 2 mps 734 mmHg 98%
    06:00 +15°C° 0 mm 2 mps 734 mmHg 96%
    07:00 +16°C° 0 mm 2 mps 734 mmHg 94%
    08:00 +18°C° 0 mm 2 mps 735 mmHg 92%
    09:00 +18°C° 0 mm 2 mps 735 mmHg 90%
    10:00 +19°C° 0 mm 3 mps 735 mmHg 89%
    11:00 +19°C° 0 mm 3 mps 735 mmHg 87%
    12:00 +19°C° 0.1 mm 3 mps 734 mmHg 86%
    13:00 +20°C° 0.1 mm 3 mps 734 mmHg 84%
    14:00 +20°C° 0.1 mm 4 mps 734 mmHg 83%
    15:00 +21°C° 0.1 mm 4 mps 734 mmHg 82%
    16:00 +21°C° 0.1 mm 4 mps 733 mmHg 81%
    17:00 +21°C° 0.1 mm 3 mps 733 mmHg 80%
    18:00 +20°C° 0.2 mm 3 mps 733 mmHg 84%
    19:00 +19°C° 0.2 mm 2 mps 733 mmHg 89%
    20:00 +18°C° 0.2 mm 2 mps 733 mmHg 94%
    21:00 +19°C° 0 mm 1 mps 732 mmHg 94%
    22:00 +18°C° 0 mm 1 mps 732 mmHg 95%
    23:00 +18°C° 0 mm 1 mps 732 mmHg 95%

    28 July, Sunday

    Time Temperature Precipitation Wind Pressure Humidity
    00:00 +18°C° 0.1 mm 1 mps 732 mmHg 96%
    01:00 +16°C° 0.1 mm 1 mps 732 mmHg 97%
    02:00 +16°C° 0.1 mm 1 mps 732 mmHg 97%
    03:00 +16°C° 0 mm 2 mps 732 mmHg 97%
    04:00 +16°C° 0 mm 2 mps 732 mmHg 97%
    05:00 +16°C° 0 mm 3 mps 732 mmHg 97%
    06:00 +17°C° 0 mm 3 mps 732 mmHg 95%
    07:00 +18°C° 0 mm 3 mps 733 mmHg 92%
    08:00 +19°C° 0 mm 3 mps 733 mmHg 90%
    09:00 +20°C° 0.1 mm 3 mps 733 mmHg 85%
    10:00 +21°C° 0.1 mm 4 mps 733 mmHg 80%
    11:00 +22°C° 0.1 mm 4 mps 734 mmHg 76%
    12:00 +23°C° 0.2 mm 4 mps 733 mmHg 72%
    13:00 +25°C° 0.2 mm 4 mps 733 mmHg 69%
    14:00 +26°C° 0.2 mm 4 mps 733 mmHg 66%
    15:00 +26°C° 0.3 mm 4 mps 733 mmHg 69%
    16:00 +25°C° 0.3 mm 4 mps 733 mmHg 72%
    17:00 +25°C° 0.3 mm 4 mps 733 mmHg 75%
    18:00 +24°C° 0.2 mm 3 mps 733 mmHg 80%
    19:00 +22°C° 0.2 mm 3 mps 733 mmHg 84%
    20:00 +21°C° 0.2 mm 2 mps 733 mmHg 88%
    21:00 +20°C° 0 mm 2 mps 733 mmHg 90%
    22:00 +19°C° 0 mm 2 mps 733 mmHg 91%
    23:00 +19°C° 0 mm 2 mps 734 mmHg 93%

    29 July, Monday

    Time Temperature Precipitation Wind Pressure Humidity
    00:00 +18°C° 0 mm 2 mps 734 mmHg 94%
    01:00 +18°C° 0 mm 2 mps 734 mmHg 94%
    02:00 +18°C° 0 mm 1 mps 734 mmHg 95%
    03:00 +17°C° 0 mm 2 mps 734 mmHg 95%
    04:00 +17°C° 0 mm 2 mps 734 mmHg 96%
    05:00 +17°C° 0 mm 2 mps 734 mmHg 97%
    06:00 +18°C° 0 mm 2 mps 734 mmHg 95%
    07:00 +19°C° 0 mm 3 mps 734 mmHg 94%
    08:00 +20°C° 0 mm 3 mps 735 mmHg 92%
    09:00 +21°C° 0.3 mm 3 mps 735 mmHg 89%
    10:00 +21°C° 0.3 mm 4 mps 735 mmHg 85%
    11:00 +22°C° 0.3 mm 4 mps 735 mmHg 82%
    12:00 +23°C° 0.2 mm 5 mps 735 mmHg 78%
    13:00 +23°C° 0.2 mm 5 mps 735 mmHg 74%
    14:00 +25°C° 0.2 mm 5 mps 735 mmHg 70%
    15:00 +23°C° 0 mm 5 mps 736 mmHg 68%
    16:00 +23°C° 0 mm 5 mps 736 mmHg 67%
    17:00 +22°C° 0 mm 5 mps 736 mmHg 66%
    18:00 +20°C° 0 mm 4 mps 736 mmHg 71%
    19:00 +19°C° 0 mm 4 mps 736 mmHg 76%
    20:00 +17°C° 0 mm 3 mps 737 mmHg 81%
    21:00 +16°C° 0 mm 3 mps 737 mmHg 83%
    22:00 +15°C° 0 mm 2 mps 737 mmHg 85%
    23:00 +14°C° 0 mm 2 mps 738 mmHg 87%
    Show more